Time,TemperatureF,DewpointF,PressureIn,WindDirection,WindDirectionDegrees,WindSpeedMPH,WindSpeedGustMPH,Humidity,HourlyPrecipIn,Conditions,Clouds,dailyrainin,SoftwareType,DateUTC
2013-03-07 00:00:00,35.5,31.3,30.20,NE,45,0.0,0.0,85,0.00,,,0.00,WUHU216HW,2013-03-07 05:00:00,
2013-03-07 00:05:00,35.3,31.1,30.20,NE,45,0.0,0.0,85,0.00,,,0.00,WUHU216HW,2013-03-07 05:05:00,
2013-03-07 00:10:00,35.3,31.1,30.20,NE,45,0.0,0.0,85,0.00,,,0.00,WUHU216HW,2013-03-07 05:10:00,
2013-03-07 00:15:00,35.1,31.2,30.20,NE,45,0.0,0.0,86,0.00,,,0.00,WUHU216HW,2013-03-07 05:15:00,
2013-03-07 00:20:00,35.1,31.2,30.20,NE,45,0.0,0.0,86,0.00,,,0.00,WUHU216HW,2013-03-07 05:20:00,
2013-03-07 00:25:00,34.9,31.1,30.20,NE,45,0.0,0.0,86,0.00,,,0.00,WUHU216HW,2013-03-07 05:25:00,
2013-03-07 00:30:00,35.1,31.2,30.20,NNE,23,0.0,0.0,86,0.00,,,0.00,WUHU216HW,2013-03-07 05:30:00,
2013-03-07 00:35:00,35.1,31.2,30.20,NNE,23,0.0,0.0,86,0.00,,,0.00,WUHU216HW,2013-03-07 05:35:00,
2013-03-07 00:40:00,34.9,31.1,30.20,ESE,113,0.0,0.0,86,0.00,,,0.00,WUHU216HW,2013-03-07 05:40:00,
2013-03-07 00:45:00,35.1,31.2,30.20,NE,45,0.0,0.0,86,0.00,,,0.00,WUHU216HW,2013-03-07 05:45:00,
2013-03-07 00:50:00,35.1,31.2,30.20,NNE,23,0.0,0.0,86,0.00,,,0.00,WUHU216HW,2013-03-07 05:50:00,
2013-03-07 00:55:00,35.1,31.2,30.20,NE,45,0.0,0.0,86,0.00,,,0.00,WUHU216HW,2013-03-07 05:55:00,
2013-03-07 01:00:00,35.3,31.1,30.20,ENE,68,0.0,0.0,85,0.00,,,0.00,WUHU216HW,2013-03-07 06:00:00,
2013-03-07 01:05:00,35.3,31.1,30.20,NE,45,0.0,0.0,85,0.00,,,0.00,WUHU216HW,2013-03-07 06:05:00,
2013-03-07 01:10:00,35.5,31.3,30.20,NNE,23,0.0,0.0,85,0.00,,,0.00,WUHU216HW,2013-03-07 06:10:00,
2013-03-07 01:15:00,35.3,30.9,30.20,NE,45,0.0,0.0,84,0.00,,,0.00,WUHU216HW,2013-03-07 06:15:00,
2013-03-07 01:20:00,35.3,30.9,30.20,ENE,68,0.0,0.0,84,0.00,,,0.00,WUHU216HW,2013-03-07 06:20:00,
2013-03-07 01:25:00,35.3,31.1,30.20,East,90,0.0,0.0,85,0.00,,,0.00,WUHU216HW,2013-03-07 06:25:00,
2013-03-07 01:30:00,35.1,30.7,30.21,ENE,68,0.0,0.0,84,0.00,,,0.00,WUHU216HW,2013-03-07 06:30:00,
2013-03-07 01:35:00,34.9,30.5,30.21,ENE,68,0.0,0.0,84,0.00,,,0.00,WUHU216HW,2013-03-07 06:35:00,
2013-03-07 01:40:00,34.9,30.8,30.21,NE,45,0.0,0.0,85,0.00,,,0.00,WUHU216HW,2013-03-07 06:40:00,
2013-03-07 01:45:00,34.9,30.5,30.21,NE,45,0.0,0.0,84,0.00,,,0.00,WUHU216HW,2013-03-07 06:45:00,
2013-03-07 01:50:00,34.9,30.5,30.21,NE,45,0.0,0.0,84,0.00,,,0.00,WUHU216HW,2013-03-07 06:50:00,
2013-03-07 01:55:00,34.9,30.5,30.21,NE,45,0.0,0.0,84,0.00,,,0.00,WUHU216HW,2013-03-07 06:55:00,
2013-03-07 02:00:00,34.9,30.8,30.21,NE,45,0.0,0.0,85,0.00,,,0.00,WUHU216HW,2013-03-07 07:00:00,
2013-03-07 02:05:00,34.6,30.2,30.21,NE,45,0.0,0.0,84,0.00,,,0.00,WUHU216HW,2013-03-07 07:05:00,
2013-03-07 02:10:00,34.4,30.0,30.20,NE,45,0.0,0.0,84,0.00,,,0.00,WUHU216HW,2013-03-07 07:10:00,
2013-03-07 02:15:00,34.2,30.1,30.20,NE,45,0.0,0.0,85,0.00,,,0.00,WUHU216HW,2013-03-07 07:15:00,
2013-03-07 02:20:00,34.2,30.1,30.20,NE,45,0.0,0.0,85,0.00,,,0.00,WUHU216HW,2013-03-07 07:20:00,
2013-03-07 02:25:00,34.0,29.9,30.20,NE,45,0.0,0.0,85,0.00,,,0.00,WUHU216HW,2013-03-07 07:25:00,
2013-03-07 02:30:00,34.0,29.9,30.20,NE,45,0.0,0.0,85,0.00,,,0.00,WUHU216HW,2013-03-07 07:30:00,
2013-03-07 02:35:00,34.0,30.2,30.20,NNE,23,0.0,0.0,86,0.00,,,0.00,WUHU216HW,2013-03-07 07:35:00,
2013-03-07 02:40:00,34.0,30.2,30.20,NNE,23,0.0,0.0,86,0.00,,,0.00,WUHU216HW,2013-03-07 07:40:00,
2013-03-07 02:45:00,34.0,30.2,30.20,NNE,23,0.0,0.0,86,0.00,,,0.00,WUHU216HW,2013-03-07 07:45:00,
2013-03-07 02:50:00,34.0,30.2,30.20,NNE,23,0.0,0.0,86,0.00,,,0.00,WUHU216HW,2013-03-07 07:50:00,
2013-03-07 02:55:00,34.0,30.2,30.20,NNE,23,0.0,0.0,86,0.00,,,0.00,WUHU216HW,2013-03-07 07:55:00,
2013-03-07 03:00:00,34.0,30.2,30.20,NNE,23,0.0,0.0,86,0.00,,,0.00,WUHU216HW,2013-03-07 08:00:00,
2013-03-07 03:05:00,34.0,30.2,30.20,NNE,23,0.0,0.0,86,0.00,,,0.00,WUHU216HW,2013-03-07 08:05:00,
2013-03-07 03:10:00,34.0,30.2,30.20,NE,45,0.0,0.0,86,0.00,,,0.00,WUHU216HW,2013-03-07 08:10:00,
2013-03-07 03:15:00,33.8,30.0,30.20,NNE,23,0.0,0.0,86,0.00,,,0.00,WUHU216HW,2013-03-07 08:15:00,
2013-03-07 03:20:00,33.8,30.2,30.20,NE,45,0.0,0.0,87,0.00,,,0.00,WUHU216HW,2013-03-07 08:20:00,
2013-03-07 03:25:00,33.8,30.0,30.20,NE,45,0.0,0.0,86,0.00,,,0.00,WUHU216HW,2013-03-07 08:25:00,
2013-03-07 03:30:00,33.8,30.2,30.21,North,0,0.0,0.0,87,0.00,,,0.00,WUHU216HW,2013-03-07 08:30:00,
2013-03-07 03:35:00,33.7,30.2,30.21,North,0,0.0,0.0,87,0.00,,,0.00,WUHU216HW,2013-03-07 08:35:00,
2013-03-07 03:40:00,33.8,30.2,30.21,North,0,0.0,0.0,87,0.00,,,0.00,WUHU216HW,2013-03-07 08:40:00,
2013-03-07 03:45:00,33.8,30.2,30.21,North,0,0.0,0.0,87,0.00,,,0.00,WUHU216HW,2013-03-07 08:45:00,
2013-03-07 03:50:00,33.8,30.2,30.21,North,0,0.0,0.0,87,0.00,,,0.00,WUHU216HW,2013-03-07 08:50:00,
2013-03-07 03:55:00,33.8,30.2,30.21,North,0,0.0,0.0,87,0.00,,,0.00,WUHU216HW,2013-03-07 08:55:00,
2013-03-07 04:00:00,33.8,30.2,30.21,North,0,0.0,0.0,87,0.00,,,0.00,WUHU216HW,2013-03-07 09:00:00,
2013-03-07 04:05:00,33.8,30.2,30.21,North,0,0.0,0.0,87,0.00,,,0.00,WUHU216HW,2013-03-07 09:05:00,
2013-03-07 04:10:00,33.7,30.2,30.21,North,0,0.0,0.0,87,0.00,,,0.00,WUHU216HW,2013-03-07 09:10:00,
2013-03-07 04:15:00,33.7,30.2,30.21,North,0,0.0,0.0,87,0.00,,,0.00,WUHU216HW,2013-03-07 09:15:00,
2013-03-07 04:21:00,33.7,30.2,30.21,North,0,0.0,0.0,87,0.00,,,0.00,WUHU216HW,2013-03-07 09:21:00,
2013-03-07 04:26:00,33.7,30.2,30.21,North,0,0.0,0.0,87,0.00,,,0.00,WUHU216HW,2013-03-07 09:26:00,
2013-03-07 04:31:00,33.7,30.4,30.21,North,0,0.0,0.0,88,0.00,,,0.00,WUHU216HW,2013-03-07 09:31:00,
2013-03-07 04:36:00,33.5,30.2,30.21,North,0,0.0,0.0,88,0.00,,,0.00,WUHU216HW,2013-03-07 09:36:00,
2013-03-07 04:41:00,33.7,30.4,30.21,NNE,23,0.0,0.0,88,0.00,,,0.00,WUHU216HW,2013-03-07 09:41:00,
2013-03-07 04:46:00,33.7,30.4,30.21,NNE,23,0.0,0.0,88,0.00,,,0.00,WUHU216HW,2013-03-07 09:46:00,
2013-03-07 04:51:00,33.7,30.4,30.22,NNE,23,0.0,0.0,88,0.00,,,0.00,WUHU216HW,2013-03-07 09:51:00,
2013-03-07 04:56:00,33.7,30.4,30.21,NNE,23,0.0,0.0,88,0.00,,,0.00,WUHU216HW,2013-03-07 09:56:00,
2013-03-07 05:01:00,33.7,30.7,30.21,NNE,23,0.0,0.0,89,0.00,,,0.00,WUHU216HW,2013-03-07 10:01:00,
2013-03-07 05:06:00,33.7,30.7,30.21,NNE,23,0.0,0.0,89,0.00,,,0.00,WUHU216HW,2013-03-07 10:06:00,
2013-03-07 05:11:00,33.7,30.7,30.21,NNE,23,0.0,0.0,89,0.00,,,0.00,WUHU216HW,2013-03-07 10:11:00,
2013-03-07 05:16:00,33.5,30.5,30.21,NNE,23,0.0,0.0,89,0.00,,,0.00,WUHU216HW,2013-03-07 10:16:00,
2013-03-07 05:21:00,33.5,30.5,30.21,NNE,23,0.0,0.0,89,0.00,,,0.00,WUHU216HW,2013-03-07 10:21:00,
2013-03-07 05:26:00,33.5,30.5,30.21,NE,45,0.0,0.0,89,0.00,,,0.00,WUHU216HW,2013-03-07 10:26:00,
2013-03-07 05:31:00,33.5,30.8,30.21,NW,315,0.0,0.0,90,0.00,,,0.00,WUHU216HW,2013-03-07 10:31:00,
2013-03-07 05:36:00,33.5,30.8,30.21,North,0,0.0,0.0,90,0.00,,,0.00,WUHU216HW,2013-03-07 10:36:00,
2013-03-07 05:41:00,33.5,30.8,30.21,North,0,0.0,0.0,90,0.00,,,0.00,WUHU216HW,2013-03-07 10:41:00,
2013-03-07 05:46:00,33.5,30.8,30.22,NNE,23,0.0,0.0,90,0.00,,,0.00,WUHU216HW,2013-03-07 10:46:00,
2013-03-07 05:51:00,33.5,30.8,30.22,NNE,23,0.0,0.0,90,0.00,,,0.00,WUHU216HW,2013-03-07 10:51:00,
2013-03-07 05:56:00,33.5,30.5,30.22,NNE,23,0.0,0.0,89,0.00,,,0.00,WUHU216HW,2013-03-07 10:56:00,
2013-03-07 06:01:00,33.5,30.8,30.22,NNE,23,0.0,0.0,90,0.00,,,0.00,WUHU216HW,2013-03-07 11:01:00,
2013-03-07 06:06:00,33.5,30.8,30.22,NE,45,0.0,0.0,90,0.00,,,0.00,WUHU216HW,2013-03-07 11:06:00,
2013-03-07 06:11:00,33.3,30.7,30.22,NNE,23,0.0,0.0,90,0.00,,,0.00,WUHU216HW,2013-03-07 11:11:00,
2013-03-07 06:16:00,33.3,30.7,30.22,NNE,23,0.0,0.0,90,0.00,,,0.00,WUHU216HW,2013-03-07 11:16:00,
2013-03-07 06:21:00,33.3,30.7,30.22,NNE,23,0.0,0.0,90,0.00,,,0.00,WUHU216HW,2013-03-07 11:21:00,
2013-03-07 06:26:00,33.3,30.7,30.22,North,0,0.0,0.0,90,0.00,,,0.00,WUHU216HW,2013-03-07 11:26:00,
2013-03-07 06:31:00,33.3,30.7,30.22,North,0,0.0,0.0,90,0.00,,,0.00,WUHU216HW,2013-03-07 11:31:00,
2013-03-07 06:36:00,33.1,30.5,30.22,NNW,338,0.0,0.0,90,0.00,,,0.00,WUHU216HW,2013-03-07 11:36:00,
2013-03-07 06:41:00,33.3,30.7,30.22,NNW,338,0.0,0.0,90,0.00,,,0.00,WUHU216HW,2013-03-07 11:41:00,
2013-03-07 06:46:00,33.1,30.5,30.23,NNW,338,0.0,0.0,90,0.00,,,0.00,WUHU216HW,2013-03-07 11:46:00,
2013-03-07 06:51:00,33.1,30.5,30.23,North,0,0.0,0.0,90,0.00,,,0.00,WUHU216HW,2013-03-07 11:51:00,
2013-03-07 06:56:00,33.1,30.8,30.23,North,0,0.0,0.0,91,0.00,,,0.00,WUHU216HW,2013-03-07 11:56:00,
2013-03-07 07:01:00,33.1,30.8,30.23,North,0,0.0,0.0,91,0.00,,,0.00,WUHU216HW,2013-03-07 12:01:00,
2013-03-07 07:06:00,33.1,30.8,30.24,NNW,338,0.0,0.0,91,0.00,,,0.00,WUHU216HW,2013-03-07 12:06:00,
2013-03-07 07:11:00,33.1,30.8,30.24,NNW,338,0.0,0.0,91,0.00,,,0.00,WUHU216HW,2013-03-07 12:11:00,
2013-03-07 07:16:00,33.1,30.8,30.24,NNW,338,0.0,0.0,91,0.00,,,0.00,WUHU216HW,2013-03-07 12:16:00,
2013-03-07 07:21:00,33.1,30.8,30.24,NNW,338,0.0,0.0,91,0.00,,,0.00,WUHU216HW,2013-03-07 12:21:00,
2013-03-07 07:26:00,33.1,30.8,30.24,North,0,0.0,0.0,91,0.00,,,0.00,WUHU216HW,2013-03-07 12:26:00,
2013-03-07 07:32:00,32.9,30.9,30.24,NNW,338,0.0,0.0,92,0.00,,,0.00,WUHU216HW,2013-03-07 12:32:00,
2013-03-07 07:36:00,32.8,30.7,30.24,NNE,23,0.0,0.0,92,0.00,,,0.00,WUHU216HW,2013-03-07 12:36:00,
2013-03-07 07:41:00,32.9,30.9,30.24,NNE,23,0.0,0.0,92,0.00,,,0.00,WUHU216HW,2013-03-07 12:41:00,
2013-03-07 07:47:00,32.9,30.9,30.24,NNE,23,0.0,0.0,92,0.00,,,0.00,WUHU216HW,2013-03-07 12:47:00,
2013-03-07 07:52:00,33.1,31.1,30.25,NNE,23,0.0,0.0,92,0.00,,,0.00,WUHU216HW,2013-03-07 12:52:00,
2013-03-07 07:57:00,33.1,31.1,30.25,NNE,23,0.0,0.0,92,0.00,,,0.00,WUHU216HW,2013-03-07 12:57:00,
2013-03-07 08:02:00,33.1,31.1,30.25,NNE,23,0.0,0.0,92,0.00,,,0.00,WUHU216HW,2013-03-07 13:02:00,
2013-03-07 08:07:00,33.3,31.1,30.25,NE,45,0.0,0.0,92,0.00,,,0.00,WUHU216HW,2013-03-07 13:07:00,
2013-03-07 08:12:00,33.3,31.0,30.25,NE,45,0.0,0.0,91,0.00,,,0.00,WUHU216HW,2013-03-07 13:12:00,
2013-03-07 08:17:00,33.5,31.1,30.25,NNE,23,0.0,0.0,91,0.00,,,0.00,WUHU216HW,2013-03-07 13:17:00,
2013-03-07 08:22:00,33.5,31.1,30.25,NNE,23,0.0,0.0,91,0.00,,,0.00,WUHU216HW,2013-03-07 13:22:00,
2013-03-07 08:27:00,33.5,31.1,30.25,NNE,23,0.0,0.0,91,0.00,,,0.00,WUHU216HW,2013-03-07 13:27:00,
2013-03-07 08:32:00,33.5,31.1,30.25,North,0,0.0,0.0,91,0.00,,,0.00,WUHU216HW,2013-03-07 13:32:00,
2013-03-07 08:37:00,33.5,31.1,30.25,NNE,23,0.0,0.0,91,0.00,,,0.00,WUHU216HW,2013-03-07 13:37:00,
2013-03-07 08:42:00,33.7,31.2,30.25,NNE,23,0.0,0.0,91,0.00,,,0.00,WUHU216HW,2013-03-07 13:42:00,
2013-03-07 08:47:00,33.5,31.1,30.25,North,0,0.0,0.0,91,0.00,,,0.00,WUHU216HW,2013-03-07 13:47:00,
2013-03-07 08:52:00,33.7,31.2,30.25,NNE,23,0.0,0.0,91,0.00,,,0.00,WUHU216HW,2013-03-07 13:52:00,
2013-03-07 08:57:00,33.7,31.2,30.26,North,0,0.0,0.0,91,0.00,,,0.00,WUHU216HW,2013-03-07 13:57:00,
2013-03-07 09:02:00,33.7,31.2,30.26,NNE,23,0.0,0.0,91,0.00,,,0.00,WUHU216HW,2013-03-07 14:02:00,
2013-03-07 09:07:00,33.8,31.4,30.25,NE,45,0.0,0.0,91,0.00,,,0.00,WUHU216HW,2013-03-07 14:07:00,
2013-03-07 09:12:00,34.0,31.6,30.26,NNE,23,0.0,0.0,91,0.00,,,0.00,WUHU216HW,2013-03-07 14:12:00,
2013-03-07 09:17:00,34.2,31.8,30.26,NNW,338,0.0,0.0,91,0.00,,,0.00,WUHU216HW,2013-03-07 14:17:00,
2013-03-07 09:22:00,34.2,31.5,30.26,NNW,338,0.0,0.0,90,0.00,,,0.00,WUHU216HW,2013-03-07 14:22:00,
2013-03-07 09:27:00,34.4,31.7,30.26,North,0,0.0,0.0,90,0.00,,,0.00,WUHU216HW,2013-03-07 14:27:00,
2013-03-07 09:32:00,34.4,31.7,30.26,NE,45,0.0,0.0,90,0.00,,,0.00,WUHU216HW,2013-03-07 14:32:00,
2013-03-07 09:37:00,34.4,31.7,30.27,ENE,68,0.0,0.0,90,0.00,,,0.00,WUHU216HW,2013-03-07 14:37:00,
2013-03-07 09:42:00,34.4,31.7,30.27,NNE,23,0.0,0.0,90,0.00,,,0.00,WUHU216HW,2013-03-07 14:42:00,
2013-03-07 09:47:00,34.6,31.9,30.27,NNE,23,0.0,0.0,90,0.01,,,0.00,WUHU216HW,2013-03-07 14:47:00,
2013-03-07 09:52:00,34.4,31.7,30.27,ENE,68,0.0,0.0,90,0.01,,,0.01,WUHU216HW,2013-03-07 14:52:00,
2013-03-07 09:57:00,34.6,31.6,30.27,NE,45,0.0,0.0,89,0.01,,,0.01,WUHU216HW,2013-03-07 14:57:00,
2013-03-07 10:02:00,34.6,31.6,30.27,NNE,23,0.0,0.0,89,0.01,,,0.01,WUHU216HW,2013-03-07 15:02:00,
2013-03-07 10:07:00,34.9,32.0,30.27,NNE,23,0.0,0.0,89,0.01,,,0.01,WUHU216HW,2013-03-07 15:07:00,
2013-03-07 10:12:00,34.9,32.0,30.27,NNW,338,0.0,0.0,89,0.01,,,0.01,WUHU216HW,2013-03-07 15:12:00,
2013-03-07 10:18:00,35.1,32.1,30.27,NNE,23,0.0,0.0,89,0.01,,,0.01,WUHU216HW,2013-03-07 15:18:00,
2013-03-07 10:23:00,35.1,32.1,30.27,NE,45,0.0,0.0,89,0.01,,,0.01,WUHU216HW,2013-03-07 15:23:00,
2013-03-07 10:28:00,35.1,31.9,30.27,NNE,23,0.0,0.0,88,0.02,,,0.02,WUHU216HW,2013-03-07 15:28:00,
2013-03-07 10:33:00,35.3,32.3,30.27,NE,45,0.0,0.0,89,0.02,,,0.02,WUHU216HW,2013-03-07 15:33:00,
2013-03-07 10:38:00,35.5,32.2,30.27,North,0,0.0,0.0,88,0.02,,,0.02,WUHU216HW,2013-03-07 15:38:00,
2013-03-07 10:43:00,35.5,32.2,30.27,NNE,23,0.0,0.0,88,0.02,,,0.02,WUHU216HW,2013-03-07 15:43:00,
2013-03-07 10:48:00,35.6,32.4,30.27,NNE,23,0.0,0.0,88,0.01,,,0.02,WUHU216HW,2013-03-07 15:48:00,
2013-03-07 10:53:00,36.0,32.4,30.27,WNW,293,0.0,0.0,87,0.01,,,0.02,WUHU216HW,2013-03-07 15:53:00,
2013-03-07 10:58:00,36.0,32.4,30.27,NNE,23,0.0,0.0,87,0.01,,,0.02,WUHU216HW,2013-03-07 15:58:00,
2013-03-07 11:03:00,36.2,32.3,30.27,NE,45,0.0,0.0,86,0.01,,,0.02,WUHU216HW,2013-03-07 16:03:00,
2013-03-07 11:08:00,36.4,32.5,30.27,North,0,0.0,0.0,86,0.02,,,0.03,WUHU216HW,2013-03-07 16:08:00,
2013-03-07 11:13:00,36.7,32.1,30.27,NE,45,0.0,0.0,83,0.02,,,0.03,WUHU216HW,2013-03-07 16:13:00,
2013-03-07 11:18:00,36.7,32.3,30.27,NNE,23,0.0,0.0,84,0.02,,,0.03,WUHU216HW,2013-03-07 16:18:00,
2013-03-07 11:23:00,36.9,32.5,30.28,NNE,23,0.0,0.0,84,0.01,,,0.03,WUHU216HW,2013-03-07 16:23:00,
2013-03-07 11:28:00,36.7,31.7,30.27,NE,45,0.0,0.0,82,0.01,,,0.03,WUHU216HW,2013-03-07 16:28:00,
2013-03-07 11:33:00,36.7,32.1,30.27,NNE,23,0.0,0.0,83,0.01,,,0.03,WUHU216HW,2013-03-07 16:33:00,
2013-03-07 11:38:00,36.9,32.2,30.28,NNE,23,0.0,0.0,83,0.01,,,0.03,WUHU216HW,2013-03-07 16:38:00,
2013-03-07 11:43:00,37.1,32.0,30.27,NNW,338,0.0,0.0,82,0.01,,,0.03,WUHU216HW,2013-03-07 16:43:00,
2013-03-07 11:48:00,37.4,32.1,30.28,NNE,23,0.0,0.0,81,0.01,,,0.03,WUHU216HW,2013-03-07 16:48:00,
2013-03-07 11:53:00,37.6,32.3,30.27,NNW,338,0.0,0.0,81,0.01,,,0.03,WUHU216HW,2013-03-07 16:53:00,
2013-03-07 11:58:00,38.2,32.6,30.28,NW,315,0.0,0.0,80,0.01,,,0.03,WUHU216HW,2013-03-07 16:58:00,
2013-03-07 12:03:00,38.5,32.9,30.28,North,0,0.0,0.0,80,0.00,,,0.03,WUHU216HW,2013-03-07 17:03:00,
2013-03-07 12:08:00,38.7,33.1,30.28,NNW,338,0.0,0.0,80,0.00,,,0.03,WUHU216HW,2013-03-07 17:08:00,
2013-03-07 12:13:00,38.7,32.8,30.28,North,0,0.0,0.0,79,0.00,,,0.03,WUHU216HW,2013-03-07 17:13:00,
2013-03-07 12:18:00,38.3,32.1,30.28,North,0,0.0,0.0,78,0.00,,,0.03,WUHU216HW,2013-03-07 17:18:00,
2013-03-07 12:23:00,38.5,32.6,30.28,North,0,0.0,0.0,79,0.00,,,0.03,WUHU216HW,2013-03-07 17:23:00,
2013-03-07 12:28:00,38.9,32.9,30.28,NW,315,0.0,0.0,79,0.00,,,0.03,WUHU216HW,2013-03-07 17:28:00,
2013-03-07 12:33:00,38.9,32.3,30.28,West,270,0.0,0.0,77,0.00,,,0.03,WUHU216HW,2013-03-07 17:33:00,
2013-03-07 12:38:00,39.2,32.9,30.28,NNW,338,0.0,0.0,78,0.00,,,0.03,WUHU216HW,2013-03-07 17:38:00,
2013-03-07 12:43:00,39.4,32.8,30.28,NNW,338,0.0,0.0,77,0.00,,,0.03,WUHU216HW,2013-03-07 17:43:00,
2013-03-07 12:48:00,39.4,32.8,30.28,NNW,338,0.0,0.0,77,0.00,,,0.03,WUHU216HW,2013-03-07 17:48:00,
2013-03-07 12:53:00,39.2,32.9,30.28,NW,315,0.0,0.0,78,0.00,,,0.03,WUHU216HW,2013-03-07 17:53:00,
2013-03-07 12:58:00,39.2,32.9,30.28,NW,315,0.0,0.0,78,0.00,,,0.03,WUHU216HW,2013-03-07 17:58:00,
2013-03-07 13:03:00,39.2,32.9,30.28,WNW,293,0.0,0.0,78,0.00,,,0.03,WUHU216HW,2013-03-07 18:03:00,
2013-03-07 13:08:00,39.1,32.5,30.28,NW,315,0.0,0.0,77,0.00,,,0.03,WUHU216HW,2013-03-07 18:08:00,
2013-03-07 13:13:00,39.1,32.8,30.27,NNW,338,0.0,0.0,78,0.00,,,0.03,WUHU216HW,2013-03-07 18:13:00,
2013-03-07 13:18:00,38.9,32.3,30.28,NW,315,0.0,0.0,77,0.00,,,0.03,WUHU216HW,2013-03-07 18:18:00,
2013-03-07 13:23:00,38.2,31.6,30.27,NNE,23,0.0,0.0,77,0.00,,,0.03,WUHU216HW,2013-03-07 18:23:00,
2013-03-07 13:28:00,38.2,31.6,30.27,WNW,293,0.0,0.0,77,0.00,,,0.03,WUHU216HW,2013-03-07 18:28:00,
2013-03-07 13:33:00,38.2,31.6,30.27,North,0,0.0,0.0,77,0.00,,,0.03,WUHU216HW,2013-03-07 18:33:00,
2013-03-07 13:38:00,38.3,31.8,30.27,NNW,338,0.0,0.0,77,0.00,,,0.03,WUHU216HW,2013-03-07 18:38:00,
2013-03-07 13:43:00,38.7,32.8,30.27,NW,315,0.0,0.0,79,0.00,,,0.03,WUHU216HW,2013-03-07 18:43:00,
2013-03-07 13:48:00,39.1,32.1,30.27,NW,315,0.0,0.0,76,0.00,,,0.03,WUHU216HW,2013-03-07 18:48:00,
2013-03-07 13:53:00,39.2,32.7,30.27,NW,315,0.0,0.0,77,0.00,,,0.03,WUHU216HW,2013-03-07 18:53:00,
2013-03-07 13:58:00,39.2,32.7,30.27,NNW,338,0.0,0.0,77,0.00,,,0.03,WUHU216HW,2013-03-07 18:58:00,
2013-03-07 14:03:00,39.2,32.7,30.27,WNW,293,0.0,0.0,77,0.00,,,0.03,WUHU216HW,2013-03-07 19:03:00,
2013-03-07 14:08:00,39.4,31.8,30.27,NNW,338,0.0,0.0,74,0.00,,,0.03,WUHU216HW,2013-03-07 19:08:00,
2013-03-07 14:13:00,38.9,32.0,30.27,NNE,23,0.0,0.0,76,0.00,,,0.03,WUHU216HW,2013-03-07 19:13:00,
2013-03-07 14:18:00,39.2,32.0,30.27,NE,45,0.0,0.0,75,0.00,,,0.03,WUHU216HW,2013-03-07 19:18:00,
2013-03-07 14:23:00,38.9,31.6,30.27,NW,315,0.0,0.0,75,0.00,,,0.03,WUHU216HW,2013-03-07 19:23:00,
2013-03-07 14:28:00,38.5,31.6,30.27,NNW,338,0.0,0.0,76,0.00,,,0.03,WUHU216HW,2013-03-07 19:28:00,
2013-03-07 14:34:00,38.7,32.1,30.27,NW,315,0.0,0.0,77,0.00,,,0.03,WUHU216HW,2013-03-07 19:34:00,
2013-03-07 14:39:00,38.9,32.0,30.27,NE,45,0.0,0.0,76,0.00,,,0.03,WUHU216HW,2013-03-07 19:39:00,
2013-03-07 14:44:00,39.4,32.5,30.27,WNW,293,0.0,0.0,76,0.00,,,0.03,WUHU216HW,2013-03-07 19:44:00,
2013-03-07 14:49:00,40.3,32.7,30.27,NNE,23,0.0,0.0,74,0.00,,,0.03,WUHU216HW,2013-03-07 19:49:00,
2013-03-07 14:54:00,40.3,32.7,30.27,NW,315,0.0,0.0,74,0.00,,,0.03,WUHU216HW,2013-03-07 19:54:00,
2013-03-07 14:59:00,40.7,33.0,30.27,NE,45,0.0,0.0,74,0.00,,,0.03,WUHU216HW,2013-03-07 19:59:00,
2013-03-07 15:04:00,41.4,32.1,30.27,NE,45,0.0,0.0,69,0.00,,,0.03,WUHU216HW,2013-03-07 20:04:00,
2013-03-07 15:09:00,40.5,31.2,30.27,ENE,68,0.0,0.0,69,0.00,,,0.03,WUHU216HW,2013-03-07 20:09:00,
2013-03-07 15:14:00,40.3,31.0,30.27,ENE,68,0.0,0.0,69,0.00,,,0.03,WUHU216HW,2013-03-07 20:14:00,
2013-03-07 15:19:00,40.0,29.8,30.27,NNE,23,0.0,0.0,67,0.00,,,0.03,WUHU216HW,2013-03-07 20:19:00,
2013-03-07 15:24:00,39.6,30.3,30.27,NNE,23,0.0,0.0,69,0.00,,,0.03,WUHU216HW,2013-03-07 20:24:00,
2013-03-07 15:29:00,39.6,30.6,30.27,NE,45,0.0,0.0,70,0.00,,,0.03,WUHU216HW,2013-03-07 20:29:00,
2013-03-07 15:34:00,39.2,29.1,30.27,North,0,0.0,0.0,67,0.00,,,0.03,WUHU216HW,2013-03-07 20:34:00,
2013-03-07 15:39:00,39.4,29.7,30.28,NW,315,0.0,0.0,68,0.00,,,0.03,WUHU216HW,2013-03-07 20:39:00,
2013-03-07 15:44:00,40.3,31.3,30.27,NW,315,0.0,0.0,70,0.00,,,0.03,WUHU216HW,2013-03-07 20:44:00,
2013-03-07 15:49:00,41.4,31.2,30.27,WNW,293,0.0,0.0,67,0.00,,,0.03,WUHU216HW,2013-03-07 20:49:00,
2013-03-07 15:54:00,41.6,31.4,30.27,NNW,338,0.0,0.0,67,0.00,,,0.03,WUHU216HW,2013-03-07 20:54:00,
2013-03-07 15:59:00,41.4,30.5,30.27,East,90,0.0,0.0,65,0.00,,,0.03,WUHU216HW,2013-03-07 20:59:00,
2013-03-07 16:04:00,40.3,29.8,30.27,NE,45,0.0,0.0,66,0.00,,,0.03,WUHU216HW,2013-03-07 21:04:00,
2013-03-07 16:09:00,39.8,30.1,30.28,North,0,0.0,0.0,68,0.00,,,0.03,WUHU216HW,2013-03-07 21:09:00,
2013-03-07 16:14:00,39.6,29.9,30.27,WNW,293,0.0,0.0,68,0.00,,,0.03,WUHU216HW,2013-03-07 21:14:00,
2013-03-07 16:19:00,39.1,29.4,30.28,NE,45,0.0,0.0,68,0.00,,,0.03,WUHU216HW,2013-03-07 21:19:00,
2013-03-07 16:24:00,38.9,29.9,30.28,North,0,0.0,0.0,70,0.00,,,0.03,WUHU216HW,2013-03-07 21:24:00,
2013-03-07 16:29:00,39.4,30.8,30.28,North,0,0.0,0.0,71,0.00,,,0.03,WUHU216HW,2013-03-07 21:29:00,
2013-03-07 16:34:00,39.4,30.1,30.28,NNW,338,0.0,0.0,69,0.00,,,0.03,WUHU216HW,2013-03-07 21:34:00,
2013-03-07 16:39:00,39.1,30.4,30.28,NE,45,0.0,0.0,71,0.00,,,0.03,WUHU216HW,2013-03-07 21:39:00,
2013-03-07 16:44:00,39.1,30.4,30.29,NNW,338,0.0,0.0,71,0.00,,,0.03,WUHU216HW,2013-03-07 21:44:00,
2013-03-07 16:49:00,39.2,30.6,30.29,NNW,338,0.0,0.0,71,0.00,,,0.03,WUHU216HW,2013-03-07 21:49:00,
2013-03-07 16:54:00,38.9,29.9,30.29,NNE,23,0.0,0.0,70,0.00,,,0.03,WUHU216HW,2013-03-07 21:54:00,
2013-03-07 16:59:00,38.5,29.6,30.29,NNE,23,0.0,0.0,70,0.00,,,0.03,WUHU216HW,2013-03-07 21:59:00,
2013-03-07 17:04:00,38.5,30.0,30.29,North,0,0.0,0.0,71,0.00,,,0.03,WUHU216HW,2013-03-07 22:04:00,
2013-03-07 17:09:00,38.5,29.6,30.29,NNE,23,0.0,0.0,70,0.00,,,0.03,WUHU216HW,2013-03-07 22:09:00,
2013-03-07 17:14:00,38.5,30.0,30.29,NNE,23,0.0,0.0,71,0.00,,,0.03,WUHU216HW,2013-03-07 22:14:00,
2013-03-07 17:19:00,38.2,30.0,30.30,NNE,23,0.0,0.0,72,0.00,,,0.03,WUHU216HW,2013-03-07 22:19:00,
2013-03-07 17:24:00,37.8,29.6,30.30,North,0,0.0,0.0,72,0.00,,,0.03,WUHU216HW,2013-03-07 22:24:00,
2013-03-07 17:29:00,37.8,30.0,30.30,NE,45,0.0,0.0,73,0.00,,,0.03,WUHU216HW,2013-03-07 22:29:00,
2013-03-07 17:34:00,37.8,30.0,30.30,NNE,23,0.0,0.0,73,0.00,,,0.03,WUHU216HW,2013-03-07 22:34:00,
2013-03-07 17:39:00,37.8,30.0,30.30,NE,45,0.0,0.0,73,0.00,,,0.03,WUHU216HW,2013-03-07 22:39:00,
2013-03-07 17:44:00,37.8,30.0,30.30,NNE,23,0.0,0.0,73,0.00,,,0.03,WUHU216HW,2013-03-07 22:44:00,
2013-03-07 17:49:00,37.4,29.9,30.30,NNE,23,0.0,0.0,74,0.00,,,0.03,WUHU216HW,2013-03-07 22:49:00,
2013-03-07 17:54:00,37.1,29.9,30.30,NNE,23,0.0,0.0,75,0.00,,,0.03,WUHU216HW,2013-03-07 22:54:00,
2013-03-07 17:59:00,36.9,29.3,30.31,NNW,338,0.0,0.0,74,0.00,,,0.03,WUHU216HW,2013-03-07 22:59:00,
2013-03-07 18:04:00,36.7,29.9,30.31,North,0,0.0,0.0,76,0.00,,,0.03,WUHU216HW,2013-03-07 23:04:00,
2013-03-07 18:09:00,36.4,29.2,30.31,North,0,0.0,0.0,75,0.00,,,0.03,WUHU216HW,2013-03-07 23:09:00,
2013-03-07 18:14:00,36.4,29.5,30.31,North,0,0.0,0.0,76,0.00,,,0.03,WUHU216HW,2013-03-07 23:14:00,
2013-03-07 18:19:00,36.2,29.4,30.31,North,0,0.0,0.0,76,0.00,,,0.03,WUHU216HW,2013-03-07 23:19:00,
2013-03-07 18:25:00,36.0,28.8,30.31,North,0,0.0,0.0,75,0.00,,,0.03,WUHU216HW,2013-03-07 23:25:00,
2013-03-07 18:30:00,35.8,28.6,30.31,North,0,0.0,0.0,75,0.00,,,0.03,WUHU216HW,2013-03-07 23:30:00,
2013-03-07 18:35:00,35.8,28.6,30.31,North,0,0.0,0.0,75,0.00,,,0.03,WUHU216HW,2013-03-07 23:35:00,
2013-03-07 18:40:00,35.6,28.4,30.31,North,0,0.0,0.0,75,0.00,,,0.03,WUHU216HW,2013-03-07 23:40:00,
2013-03-07 18:44:00,35.5,28.3,30.31,North,0,0.0,0.0,75,0.00,,,0.03,WUHU216HW,2013-03-07 23:44:00,
2013-03-07 18:50:00,35.1,27.9,30.31,North,0,0.0,0.0,75,0.00,,,0.03,WUHU216HW,2013-03-07 23:50:00,
2013-03-07 18:55:00,34.6,27.7,30.31,North,0,0.0,0.0,76,0.00,,,0.03,WUHU216HW,2013-03-07 23:55:00,
2013-03-07 19:00:00,34.2,27.6,30.32,North,0,0.0,0.0,77,0.00,,,0.03,WUHU216HW,2013-03-08 00:00:00,
2013-03-07 19:05:00,34.2,27.6,30.32,North,0,0.0,0.0,77,0.00,,,0.03,WUHU216HW,2013-03-08 00:05:00,
2013-03-07 19:10:00,34.0,27.5,30.32,North,0,0.0,0.0,77,0.00,,,0.03,WUHU216HW,2013-03-08 00:10:00,
2013-03-07 19:15:00,33.7,27.8,30.32,North,0,0.0,0.0,79,0.00,,,0.03,WUHU216HW,2013-03-08 00:15:00,
2013-03-07 19:20:00,33.5,27.9,30.32,North,0,0.0,0.0,80,0.00,,,0.03,WUHU216HW,2013-03-08 00:20:00,
2013-03-07 19:25:00,33.5,28.3,30.32,North,0,0.0,0.0,81,0.00,,,0.03,WUHU216HW,2013-03-08 00:25:00,
2013-03-07 19:30:00,33.5,28.5,30.32,North,0,0.0,0.0,82,0.00,,,0.03,WUHU216HW,2013-03-08 00:30:00,
2013-03-07 19:35:00,33.5,28.5,30.32,North,0,0.0,0.0,82,0.00,,,0.03,WUHU216HW,2013-03-08 00:35:00,
2013-03-07 19:40:00,33.5,28.3,30.32,North,0,0.0,0.0,81,0.00,,,0.03,WUHU216HW,2013-03-08 00:40:00,
2013-03-07 19:45:00,33.5,27.9,30.32,North,0,0.0,0.0,80,0.00,,,0.03,WUHU216HW,2013-03-08 00:45:00,
2013-03-07 19:50:00,33.5,27.9,30.32,North,0,0.0,0.0,80,0.00,,,0.03,WUHU216HW,2013-03-08 00:50:00,
2013-03-07 19:55:00,33.5,27.9,30.33,North,0,0.0,0.0,80,0.00,,,0.03,WUHU216HW,2013-03-08 00:55:00,
2013-03-07 20:00:00,33.5,27.9,30.33,North,0,0.0,0.0,80,0.00,,,0.03,WUHU216HW,2013-03-08 01:00:00,
2013-03-07 20:05:00,33.5,27.9,30.33,North,0,0.0,0.0,80,0.00,,,0.03,WUHU216HW,2013-03-08 01:05:00,
2013-03-07 20:10:00,33.5,27.9,30.33,North,0,0.0,0.0,80,0.00,,,0.03,WUHU216HW,2013-03-08 01:10:00,
2013-03-07 20:15:00,33.7,28.1,30.33,North,0,0.0,0.0,80,0.00,,,0.03,WUHU216HW,2013-03-08 01:15:00,
2013-03-07 20:20:00,33.5,27.9,30.33,North,0,0.0,0.0,80,0.00,,,0.03,WUHU216HW,2013-03-08 01:20:00,
2013-03-07 20:25:00,33.5,27.9,30.34,North,0,0.0,0.0,80,0.00,,,0.03,WUHU216HW,2013-03-08 01:25:00,
2013-03-07 20:30:00,33.7,28.7,30.34,North,0,0.0,0.0,82,0.00,,,0.03,WUHU216HW,2013-03-08 01:30:00,
2013-03-07 20:35:00,33.7,28.7,30.34,North,0,0.0,0.0,82,0.00,,,0.03,WUHU216HW,2013-03-08 01:35:00,
2013-03-07 20:40:00,33.7,29.0,30.34,NE,45,0.0,0.0,83,0.00,,,0.03,WUHU216HW,2013-03-08 01:40:00,
2013-03-07 20:45:00,33.7,29.0,30.34,ENE,68,0.0,0.0,83,0.00,,,0.03,WUHU216HW,2013-03-08 01:45:00,
2013-03-07 20:50:00,33.5,29.1,30.34,ENE,68,0.0,0.0,84,0.00,,,0.03,WUHU216HW,2013-03-08 01:50:00,
2013-03-07 20:55:00,33.3,29.3,30.34,NE,45,0.0,0.0,85,0.00,,,0.03,WUHU216HW,2013-03-08 01:55:00,
2013-03-07 21:00:00,33.1,29.1,30.34,NNE,23,0.0,0.0,85,0.00,,,0.03,WUHU216HW,2013-03-08 02:00:00,
2013-03-07 21:05:00,33.1,29.1,30.34,NE,45,0.0,0.0,85,0.00,,,0.03,WUHU216HW,2013-03-08 02:05:00,
2013-03-07 21:10:00,32.9,28.9,30.34,NE,45,0.0,0.0,85,0.00,,,0.03,WUHU216HW,2013-03-08 02:10:00,
2013-03-07 21:15:00,32.9,28.9,30.34,ENE,68,0.0,0.0,85,0.00,,,0.03,WUHU216HW,2013-03-08 02:15:00,
2013-03-07 21:20:00,32.9,28.9,30.34,ENE,68,0.0,0.0,85,0.00,,,0.03,WUHU216HW,2013-03-08 02:20:00,
2013-03-07 21:25:00,32.8,28.7,30.34,NE,45,0.0,0.0,85,0.00,,,0.03,WUHU216HW,2013-03-08 02:25:00,
2013-03-07 21:30:00,32.8,29.0,30.34,NE,45,0.0,0.0,86,0.00,,,0.03,WUHU216HW,2013-03-08 02:30:00,
2013-03-07 21:35:00,32.8,29.0,30.34,ENE,68,0.0,0.0,86,0.00,,,0.03,WUHU216HW,2013-03-08 02:35:00,
2013-03-07 21:40:00,32.6,29.2,30.34,NE,45,0.0,0.0,87,0.00,,,0.03,WUHU216HW,2013-03-08 02:40:00,
2013-03-07 21:45:00,32.4,29.3,30.34,NE,45,0.0,0.0,88,0.00,,,0.03,WUHU216HW,2013-03-08 02:45:00,
2013-03-07 21:50:00,32.2,29.1,30.34,NE,45,0.0,0.0,88,0.00,,,0.03,WUHU216HW,2013-03-08 02:50:00,
2013-03-07 21:55:00,32.2,29.4,30.34,NE,45,0.0,0.0,89,0.00,,,0.03,WUHU216HW,2013-03-08 02:55:00,
2013-03-07 22:00:00,32.2,29.4,30.35,NE,45,0.0,0.0,89,0.00,,,0.03,WUHU216HW,2013-03-08 03:00:00,
2013-03-07 22:06:00,32.0,29.5,30.34,East,90,0.0,0.0,90,0.00,,,0.03,WUHU216HW,2013-03-08 03:06:00,
2013-03-07 22:11:00,32.0,29.3,30.34,East,90,0.0,0.0,89,0.00,,,0.03,WUHU216HW,2013-03-08 03:11:00,
2013-03-07 22:16:00,32.0,29.3,30.34,East,90,0.0,0.0,89,0.00,,,0.03,WUHU216HW,2013-03-08 03:16:00,
2013-03-07 22:21:00,32.0,29.3,30.34,East,90,0.0,0.0,89,0.00,,,0.03,WUHU216HW,2013-03-08 03:21:00,
2013-03-07 22:26:00,32.2,29.4,30.33,East,90,0.0,0.0,89,0.00,,,0.03,WUHU216HW,2013-03-08 03:26:00,
2013-03-07 22:31:00,32.0,29.3,30.34,East,90,0.0,0.0,89,0.00,,,0.03,WUHU216HW,2013-03-08 03:31:00,
2013-03-07 22:36:00,32.0,29.0,30.33,East,90,0.0,0.0,88,0.00,,,0.03,WUHU216HW,2013-03-08 03:36:00,
2013-03-07 22:41:00,31.9,28.8,30.33,East,90,0.0,0.0,88,0.00,,,0.03,WUHU216HW,2013-03-08 03:41:00,
2013-03-07 22:46:00,31.7,28.3,30.33,East,90,0.0,0.0,87,0.00,,,0.03,WUHU216HW,2013-03-08 03:46:00,
2013-03-07 22:51:00,31.3,27.9,30.33,East,90,0.0,0.0,87,0.00,,,0.03,WUHU216HW,2013-03-08 03:51:00,
2013-03-07 22:56:00,31.1,27.7,30.33,East,90,0.0,0.0,87,0.00,,,0.03,WUHU216HW,2013-03-08 03:56:00,
2013-03-07 23:01:00,30.6,27.2,30.33,East,90,0.0,0.0,87,0.00,,,0.03,WUHU216HW,2013-03-08 04:01:00,
2013-03-07 23:06:00,30.2,27.2,30.33,East,90,0.0,0.0,88,0.00,,,0.03,WUHU216HW,2013-03-08 04:06:00,
2013-03-07 23:11:00,30.1,27.0,30.33,East,90,0.0,0.0,88,0.00,,,0.03,WUHU216HW,2013-03-08 04:11:00,
2013-03-07 23:16:00,29.7,26.7,30.33,East,90,0.0,0.0,88,0.00,,,0.03,WUHU216HW,2013-03-08 04:16:00,
2013-03-07 23:21:00,29.5,26.5,30.33,East,90,0.0,0.0,88,0.00,,,0.03,WUHU216HW,2013-03-08 04:21:00,
2013-03-07 23:26:00,29.3,26.3,30.33,East,90,0.0,0.0,88,0.00,,,0.03,WUHU216HW,2013-03-08 04:26:00,
2013-03-07 23:31:00,29.3,26.3,30.33,East,90,0.0,0.0,88,0.00,,,0.03,WUHU216HW,2013-03-08 04:31:00,
2013-03-07 23:36:00,29.3,26.3,30.33,East,90,0.0,0.0,88,0.00,,,0.03,WUHU216HW,2013-03-08 04:36:00,
2013-03-07 23:41:00,29.5,26.5,30.33,East,90,0.0,0.0,88,0.00,,,0.03,WUHU216HW,2013-03-08 04:41:00,
2013-03-07 23:46:00,29.5,26.5,30.33,East,90,0.0,0.0,88,0.00,,,0.03,WUHU216HW,2013-03-08 04:46:00,
2013-03-07 23:51:00,29.5,26.5,30.34,East,90,0.0,0.0,88,0.00,,,0.03,WUHU216HW,2013-03-08 04:51:00,
2013-03-07 23:56:00,29.3,26.3,30.33,East,90,0.0,0.0,88,0.00,,,0.03,WUHU216HW,2013-03-08 04:56:00,